Dewpoint
-10 -13 -16 -23 -30 -31 -33 -33 -33 -34 -34 -33 -31 -29 -30 -31 -28 -16 -14 -11 -11 -12 -14 -17 -20 -17 -15 -11 -9 -1 -2 1 -1 -1 -2 -2 -2 -2 -1 -1 -2 -2 -3 -3 -2
-9 -13 -17 -26 -30 -32 -33 -33 -34 -34 -33 -32 -30 -29 -30 -30 -19 -13 -11 -10 -11 -12 -14 -19 -22 -22 -11 -12 -10 -7 -3 -4 -3 -2 -1 -4 -4 -4 -3 -2 -2 -2 -2 -3 -3
-6 -12 -18 -27 -30 -31 -32 -34 -34 -33 -32 -32 -29 -29 -30 -29 -13 -10 -9 -10 -13 -16 -18 -17 -13 -13 -2 -7 -11 -8 -8 -7 -8 -6 -9 -9 -9 -8 -8 -7 -4 -2 -3 -3 -3
-5 -11 -18 -27 -29 -31 -33 -33 -32 -32 -32 -30 -29 -30 -29 -27 -19 -8 -12 -13 -12 -13 -14 -13 -13 -11 -8 -6 -7 -7 -7 -9 -8 -9 -9 -10 -11 -11 -10 -10 -9 -9 -9 -8 -6
-3 -9 -18 -27 -28 -30 -33 -33 -31 -30 -30 -29 -29 -29 -23 -24 -18 -19 -13 -11 -10 -10 -11 -11 -10 -8 -9 -8 -8 -8 -9 -9 -9 -9 -10 -11 -12 -12 -14 -15 -18 -18 -15 -11 -8
0 -9 -17 -27 -29 -31 -31 -31 -30 -29 -28 -28 -28 -27 -22 -21 -16 -13 -12 -12 -12 -10 -8 -7 -6 -6 -8 -7 -8 -8 -8 -9 -9 -10 -10 -10 -12 -13 -16 -17 -15 -14 -13 -12 -10
-1 -3 -18 -25 -29 -30 -30 -28 -28 -28 -27 -27 -27 -20 -17 -16 -13 -11 -10 -9 -8 -7 -7 -7 -6 -6 -6 -6 -7 -7 -7 -9 -11 -12 -12 -13 -14 -14 -15 -12 -11 -11 -11 -11 -9
4 -2 -18 -18 -29 -30 -28 -28 -27 -25 -24 -24 -21 -16 -11 -12 -11 -11 -9 -8 -8 -7 -6 -6 -6 -5 -5 -7 -7 -7 -7 -9 -13 -12 -13 -13 -13 -15 -14 -12 -11 -11 -10 -11 -11
4 -3 -14 -21 -30 -29 -26 -25 -21 -21 -19 -18 -16 -17 -10 -11 -12 -11 -10 -9 -8 -6 -6 -6 -6 -5 -6 -5 -6 -7 -10 -8 -9 -12 -11 -12 -11 -13 -13 -10 -8 -8 -8 -9 -10
3 3 -12 -26 -29 -27 -24 -15 -11 -12 -12 -11 -11 -12 -10 -11 -11 -11 -10 -9 -6 -6 -5 -4 -4 -4 -5 -5 -9 -9 -7 -8 -7 -9 -9 -8 -7 -8 -8 -7 -7 -7 -7 -8 -9
3 0 -7 -26 -27 -25 -14 -9 -9 -8 -8 -10 -10 -11 -11 -11 -11 -10 -9 -7 -5 -5 -4 -4 -3 -4 -5 -5 -6 -5 -5 -5 -7 -8 -6 -5 -5 -5 -6 -6 -6 -6 -7 -7 -7
5 -0 -11 -24 -27 -17 -8 -9 -13 -13 -14 -8 -11 -12 -11 -11 -11 -10 -8 -6 -4 -3 -4 -3 -2 -4 -4 -5 -4 -4 -3 -3 -5 -5 -3 -3 -3 -4 -5 -5 -5 -5 -5 -5 -6
3 -2 -15 -12 -25 -14 -7 -8 -13 -19 -13 -10 -10 -10 -9 -9 -10 -9 -7 -4 -3 -2 -3 -2 -3 -5 -4 -4 -3 -3 -2 -2 -2 -3 -2 -2 -3 -7 -9 -8 -9 -8 -6 -6 -6
3 -8 -12 -22 -13 -8 -7 -9 -14 -18 -3 -4 -6 -7 -9 -9 -9 -9 -6 -4 -4 -2 -3 -2 -4 -4 -4 -3 -4 -0 -4 -3 -2 1 3 -1 2 -5 -9 -8 -8 -9 -8 -8 -8
2 -6 -15 -18 -7 -5 -8 -7 -14 -7 -11 -5 -6 -8 -10 -9 -9 -9 -5 -4 -2 -2 -2 -2 -1 -1 1 -1 -3 -1 -3 -2 -1 2 3 -2 1 -6 -6 -5 -6 -6 -3 3 3
-3 -3 -10 -15 -6 -7 -7 -8 -6 -1 -11 -8 -12 -9 -8 -8 -8 -7 -6 -4 -3 -2 -2 -2 -3 -3 -2 -3 -2 -3 -0 1 1 3 2 -1 -1 -3 -2 4 4 4 4 4 3
-2 -1 -10 -11 -8 -6 -5 -2 -0 -6 -11 -12 -8 -7 -7 -6 -6 -4 -3 -4 -3 -4 -4 -3 -3 -2 -3 -1 -1 1 2 2 0 1 -2 -5 -1 -2 5 4 3 3 2 2 1
0 -8 -12 -2 -2 -3 -2 0 -4 -6 -9 -11 -7 -7 -5 -6 -5 -5 -2 -3 -4 -3 -2 -3 -8 -2 -1 -0 -1 -0 3 3 5 1 1 -2 1 3 1 2 1 1 -0 1 1
-7 -10 -9 -3 -2 -3 -1 0 -6 -7 -10 -7 -6 -6 -5 -6 -3 -4 -2 -2 -3 -5 -5 -2 -4 -4 -7 -2 0 5 5 2 4 1 3 0 3 3 -1 1 1 0 -0 -0 -0
-9 -5 -1 -1 -2 -3 -0 -2 -8 -9 -9 -8 -6 -6 -4 -5 -4 -3 -3 -3 -3 -5 -5 -4 -1 -5 -3 -0 2 3 2 5 4 5 4 2 5 3 2 1 1 0 -0 -1 -1
-3 -2 -1 -1 -4 -1 1 -3 -8 -10 -9 -7 -6 -5 -5 -3 -3 -3 -2 -3 -4 -5 -5 -4 -2 -2 -2 1 -1 2 1 3 4 5 6 6 4 2 1 1 0 -0 -1 -2 -2
-1 0 -1 -1 0 -1 -0 -4 -10 -8 -8 -7 -5 -4 -3 -4 -4 -4 -2 -3 -4 -5 -4 -4 -1 0 -3 -4 -2 -2 1 3 5 5 4 5 3 2 1 0 -1 -1 -2 -2 -3
-0 -0 0 1 1 0 -1 -4 -8 -7 -7 -7 -3 -5 -5 -5 -4 -5 -4 -5 -5 -5 -4 -2 1 1 -5 -1 -2 1 0 3 5 6 6 6 4 1 0 -1 -1 -2 -2 -3 -3
-2 0 -1 -0 -1 -1 -1 -4 -4 -8 -7 -6 -6 -7 -7 -7 -7 -5 -6 -5 -5 -5 -4 -1 0 1 1 -0 2 2 0 1 2 6 6 4 2 0 -0 -1 -2 -2 -3 -3 -4
-4 -3 -3 0 -0 -4 -5 -4 -4 -6 -8 -8 -7 -7 -7 -6 -6 -5 -4 -4 -5 -3 -3 -3 -0 -0 -1 -1 2 3 1 1 2 3 2 1 0 0 -1 -2 -2 -3 -4 -4 -5
-2 -3 -3 -3 -3 -5 -5 -5 -5 -8 -7 -6 -5 -6 -7 -6 -7 -5 -5 -4 -4 -4 -4 -3 -0 -0 0 1 3 3 1 -1 1 1 2 2 0 0 -2 -3 -4 -4 -4 -5 -5
-4 -4 -5 -4 -5 -4 -4 -6 -6 -5 -4 -7 -6 -5 -6 -6 -6 -6 -6 -5 -4 -4 -2 -2 -0 1 1 -0 4 3 1 2 1 -0 1 1 1 -0 -3 -4 -4 -5 -5 -5 -6
Wind_Speed
14 13 13 14 13 12 10 9 8 8 7 8 9 9 8 9 6 4 6 6 5 6 6 5 6 6 3 3 4 4 3 5 6 7 6 7 12 15 15 16 16 11 15 22 32
16 15 14 15 15 13 11 10 9 8 9 8 10 11 9 8 3 4 5 5 6 7 10 11 10 8 1 2 3 5 4 7 4 3 5 10 14 20 13 18 20 21 20 10 12
18 16 15 14 15 13 11 11 10 10 10 10 11 11 10 7 1 4 4 5 8 11 13 11 6 5 3 1 1 2 5 3 2 4 10 10 19 17 22 16 12 12 18 21 25
20 17 16 15 14 13 12 11 10 10 11 11 10 9 8 3 1 3 3 6 9 11 10 5 4 3 2 1 1 4 7 3 5 7 12 13 15 22 30 28 25 29 34 30 28
21 18 17 16 14 14 12 11 11 11 11 11 11 8 3 1 3 2 4 5 6 8 9 8 11 3 1 3 5 6 3 8 11 21 21 22 24 24 36 39 43 39 34 31 29
22 20 18 17 15 15 13 11 11 11 11 11 10 7 2 3 7 8 4 3 6 8 9 9 6 4 1 3 2 3 12 18 15 18 17 18 20 13 9 27 28 27 29 31 29
23 23 20 16 14 14 12 11 12 12 11 10 9 5 1 6 9 6 4 4 6 7 7 6 4 4 4 4 5 8 11 10 9 2 3 10 17 17 19 9 13 18 19 22 23
25 25 20 16 14 13 11 11 12 11 11 10 5 2 4 10 8 4 4 3 6 5 5 3 4 6 2 5 6 5 3 5 1 14 4 4 21 12 9 13 23 30 40 37 32
28 26 21 16 15 13 10 9 10 9 8 7 3 2 7 8 5 2 1 4 8 4 5 2 2 1 1 1 3 4 8 9 9 7 6 6 25 5 20 37 40 35 34 42 47
32 29 21 16 16 12 9 6 5 5 5 4 3 5 8 6 3 4 4 8 5 4 3 3 3 1 1 1 4 6 9 8 14 2 8 18 30 33 37 34 38 39 37 38 47
34 29 22 17 15 12 9 7 4 2 8 2 4 4 7 4 5 5 3 8 2 2 2 2 1 6 7 7 7 7 13 17 23 18 17 22 26 30 40 32 36 39 40 41 43
38 28 24 18 15 14 12 8 7 3 1 7 6 5 4 2 2 6 3 2 1 2 0 1 5 5 4 6 6 7 13 18 24 13 14 22 24 34 31 31 35 41 44 44 45
37 30 27 21 19 15 14 14 7 6 2 1 4 4 4 3 1 2 2 1 1 1 3 4 2 3 2 8 7 9 11 17 16 26 21 12 17 19 24 22 29 34 40 43 45
34 30 25 25 19 17 14 13 9 9 3 3 4 5 6 3 1 2 2 1 1 1 1 6 1 2 2 8 5 10 12 16 13 14 10 12 9 24 21 24 21 29 31 38 45
38 33 27 28 13 23 13 12 11 6 3 6 3 8 6 2 3 1 3 1 3 2 1 3 1 2 4 8 6 8 6 14 18 16 13 4 5 12 25 26 26 24 32 29 36
40 36 30 29 18 19 14 14 11 3 6 5 5 4 4 2 1 1 4 3 1 0 3 9 5 4 5 6 10 11 10 18 6 2 5 7 3 20 15 22 23 23 21 24 26
35 35 30 28 26 25 19 17 3 4 2 6 4 3 4 2 2 3 3 5 4 5 6 6 3 3 5 4 3 1 11 5 2 3 6 7 12 8 19 19 21 18 22 25 27
38 32 30 25 27 26 25 3 4 4 4 4 5 7 4 1 2 3 3 2 4 1 2 5 2 1 1 4 7 8 4 3 5 5 13 13 4 5 21 20 26 26 22 28 31
36 32 28 26 26 24 12 2 4 5 7 10 5 4 3 2 3 0 2 2 2 2 4 2 5 1 8 7 2 1 3 3 4 9 5 4 3 4 25 22 20 27 32 33 32
39 31 26 25 23 23 3 3 3 4 7 5 4 3 4 4 2 3 1 1 2 2 1 0 5 2 5 5 5 2 5 2 3 5 7 5 4 11 21 22 21 19 28 33 33
34 13 21 22 19 14 3 3 4 9 9 4 5 5 4 4 3 2 3 1 0 1 1 0 2 6 5 1 7 5 4 4 3 4 4 6 4 10 14 15 17 18 29 33 35
10 5 23 23 5 2 3 4 6 6 5 5 5 5 4 4 3 3 4 3 1 1 4 1 2 5 7 11 2 5 8 4 4 3 5 7 3 9 12 13 20 21 28 31 33
9 12 23 15 4 3 2 3 4 5 4 4 4 3 3 4 4 3 3 4 3 2 3 2 2 5 3 5 4 6 14 10 8 4 4 4 3 7 13 17 23 22 25 29 32
10 4 5 5 1 4 4 4 5 6 5 8 5 5 4 3 1 4 2 1 3 2 6 3 3 5 4 5 3 4 16 14 9 2 4 7 5 12 15 15 19 25 25 24 29
5 4 9 4 4 3 3 5 10 5 4 7 3 4 5 4 2 3 2 2 1 0 2 1 3 4 9 13 2 4 12 15 11 11 5 3 6 10 11 12 16 21 26 30 34
5 7 6 7 16 5 3 4 7 4 4 3 7 6 4 4 3 4 4 3 3 1 2 1 2 2 4 5 9 3 13 12 10 11 6 5 6 5 12 17 25 26 28 31 32
8 14 12 2 4 4 3 5 8 8 8 8 10 5 5 4 5 6 7 8 5 2 1 2 0 3 2 5 3 4 8 7 8 14 8 8 6 5 9 16 22 25 27 27 27
Wind_Direction
289 293 295 297 296 296 294 288 286 291 300 309 321 333 350 343 346 350 10 54 38 34 28 12 342 342 300 203 181 139 214 239 245 243 277 313 312 295 294 284 291 283 294 294 302
288 289 294 296 297 294 291 284 283 288 297 309 322 334 353 348 351 44 82 41 14 354 342 340 343 344 102 141 172 193 202 223 225 254 300 318 317 306 295 295 297 287 297 310 311
284 286 288 288 293 292 288 283 287 294 302 312 325 334 347 347 139 97 66 17 352 347 349 347 6 30 97 109 128 130 230 203 231 3 353 320 300 297 287 285 288 303 301 296 298
279 278 282 285 284 279 275 276 281 288 298 310 319 336 346 355 12 118 24 12 6 4 348 12 4 59 95 224 10 275 247 251 295 314 320 296 294 281 275 277 277 283 285 291 287
272 273 275 278 277 276 272 273 279 287 293 307 318 333 351 145 138 111 72 36 22 1 12 30 48 49 28 279 308 224 265 294 285 292 287 277 262 265 276 278 282 289 287 285 279
265 266 266 271 273 272 272 273 275 282 293 302 313 329 320 142 131 115 79 19 349 358 23 34 47 16 296 275 264 333 294 289 289 270 273 276 284 271 277 288 284 280 283 285 280
256 256 258 260 264 261 266 272 275 283 289 296 310 340 98 147 125 109 86 48 27 12 19 21 9 1 319 290 321 294 301 319 281 342 256 311 267 245 283 299 306 311 310 302 296
249 249 252 261 254 250 257 267 277 283 285 290 305 347 121 134 125 99 96 56 6 339 339 351 337 316 237 314 336 320 304 340 185 331 275 318 284 310 306 341 313 305 299 294 289
243 243 241 241 238 244 247 262 274 277 266 257 250 144 141 143 127 80 55 339 339 15 337 304 332 46 5 339 325 21 302 294 300 201 319 250 293 313 290 298 290 285 280 283 282
233 237 233 224 223 227 239 246 257 253 224 227 209 132 158 151 101 90 41 347 339 360 78 36 84 114 118 174 293 311 300 276 282 234 300 286 279 287 287 282 276 279 278 271 274
227 224 219 209 213 213 211 178 187 203 203 204 142 113 133 130 119 85 73 347 347 75 20 21 272 235 242 218 272 281 274 282 280 288 296 277 282 290 285 281 279 275 270 267 263
225 218 196 191 208 202 199 196 196 176 201 220 215 201 180 65 101 49 62 28 355 351 189 320 254 254 261 265 255 270 283 280 288 294 310 294 289 277 284 284 278 276 273 268 262
215 205 188 189 199 198 197 211 208 188 119 192 184 173 162 155 99 31 33 63 99 174 199 227 296 35 243 272 262 263 260 282 274 312 308 299 288 278 283 284 295 281 268 269 263
207 191 187 183 187 188 193 194 195 180 95 187 205 173 140 143 100 59 12 86 123 261 296 250 299 33 357 276 269 281 257 270 286 313 305 5 295 308 320 304 310 291 286 267 263
203 183 180 181 183 179 186 184 178 174 208 150 145 146 141 161 149 87 35 141 172 208 91 271 208 266 270 253 179 245 230 283 282 285 300 311 259 288 318 327 320 311 311 312 290
191 189 180 178 172 174 178 173 157 64 213 151 132 170 122 63 38 34 59 78 115 43 242 263 280 272 225 280 233 278 314 296 286 256 259 236 280 310 357 326 309 309 14 14 29
187 186 183 179 180 173 167 156 91 208 169 153 142 127 105 55 84 23 62 51 35 354 353 317 239 206 202 271 255 115 328 309 284 216 261 209 315 332 351 351 353 21 19 34 44
176 175 174 174 169 165 158 90 182 143 140 131 117 112 106 110 60 352 122 112 64 95 304 338 358 96 98 314 285 292 247 288 302 305 300 309 263 343 0 353 355 11 14 37 42
158 163 172 175 170 167 159 171 199 177 148 137 109 104 135 130 143 175 81 154 111 32 14 309 270 252 313 315 288 70 221 295 266 263 283 293 313 248 357 1 2 7 13 21 30
159 153 161 165 166 166 108 174 163 140 122 118 117 137 145 153 156 62 96 209 135 175 327 271 289 259 293 274 150 264 320 308 215 302 299 295 52 330 352 5 1 8 15 15 19
140 117 160 158 158 170 168 185 142 145 122 114 130 127 127 137 143 159 172 203 189 315 80 174 200 299 292 67 355 342 315 293 271 243 284 315 68 353 352 4 10 7 22 19 19
113 100 154 152 139 170 148 187 117 139 117 96 95 95 120 138 143 159 181 169 165 77 330 152 280 282 296 298 111 349 333 289 255 287 266 266 82 356 2 7 17 14 22 24 26
98 94 161 173 144 164 199 137 111 160 128 115 113 117 123 144 128 177 184 154 169 349 213 166 207 312 19 118 30 18 353 336 284 243 285 348 29 4 5 11 16 16 17 25 26
122 118 130 195 188 144 153 134 120 104 71 84 110 98 110 114 88 159 150 333 296 241 215 220 231 205 230 250 5 323 11 5 355 282 340 34 1 358 6 5 9 10 12 22 23
138 147 162 173 224 177 115 140 135 122 93 115 67 123 136 126 133 140 130 312 316 17 193 224 255 229 251 263 181 24 29 14 8 350 52 67 26 6 3 357 3 16 18 17 18
132 130 132 113 141 130 138 166 132 110 123 117 132 152 143 148 161 156 145 186 220 159 292 251 238 314 322 109 170 101 30 30 21 360 62 94 61 22 0 16 22 19 16 14 12
118 131 123 104 135 128 178 154 147 117 43 122 140 127 161 202 180 217 225 243 237 265 266 226 112 356 299 354 342 64 15 37 55 35 360 22 356 16 29 30 24 18 17 14 14
Height
1516 1516 1515 1515 1515 1514 1514 1513 1513 1512 1512 1512 1511 1511 1510 1508 1508 1507 1507 1508 1507 1507 1507 1507 1507 1506 1506 1508 1509 1510 1513 1513 1509 1508 1499 1501 1497 1495 1494 1494 1495 1495 1494 1491 1487
1514 1514 1513 1513 1514 1512 1512 1513 1512 1511 1509 1510 1510 1509 1508 1507 1507 1507 1508 1507 1507 1507 1506 1505 1504 1504 1505 1507 1508 1509 1510 1507 1504 1503 1501 1501 1499 1494 1490 1492 1492 1489 1488 1488 1486
1511 1511 1511 1511 1512 1512 1511 1511 1510 1509 1508 1508 1509 1507 1506 1506 1507 1507 1508 1508 1507 1506 1505 1505 1504 1504 1505 1506 1508 1508 1504 1504 1503 1504 1503 1502 1498 1495 1486 1486 1487 1485 1484 1485 1484
1508 1508 1508 1509 1509 1510 1509 1509 1509 1507 1507 1507 1507 1506 1505 1505 1509 1507 1508 1507 1506 1504 1505 1505 1504 1504 1505 1505 1506 1507 1503 1504 1504 1503 1503 1500 1497 1489 1485 1483 1484 1482 1479 1479 1480
1504 1504 1505 1506 1507 1509 1507 1507 1508 1507 1504 1505 1505 1505 1504 1505 1506 1506 1506 1507 1506 1506 1505 1504 1504 1506 1506 1506 1505 1502 1502 1503 1502 1501 1498 1495 1490 1485 1473 1476 1474 1473 1472 1470 1471
1499 1500 1502 1503 1504 1507 1506 1505 1506 1506 1504 1504 1503 1503 1503 1504 1505 1505 1506 1507 1507 1505 1505 1506 1506 1506 1507 1505 1505 1502 1501 1498 1497 1494 1493 1490 1485 1483 1471 1469 1467 1468 1466 1465 1464
1495 1495 1498 1499 1502 1503 1504 1504 1505 1505 1503 1503 1503 1503 1503 1504 1504 1505 1506 1506 1506 1506 1505 1505 1506 1507 1508 1505 1504 1502 1497 1495 1489 1491 1490 1487 1471 1468 1466 1466 1463 1462 1462 1458 1459
1489 1491 1494 1497 1498 1500 1502 1502 1504 1503 1502 1501 1501 1502 1503 1504 1504 1506 1506 1506 1506 1504 1504 1504 1504 1506 1507 1507 1504 1500 1499 1493 1490 1487 1487 1487 1451 1461 1464 1463 1461 1459 1454 1452 1450
1483 1486 1488 1493 1495 1497 1499 1499 1501 1501 1501 1500 1500 1501 1503 1504 1504 1504 1505 1506 1506 1505 1502 1500 1501 1506 1508 1506 1502 1504 1492 1496 1490 1487 1488 1486 1457 1459 1460 1461 1453 1451 1449 1442 1435
1476 1479 1485 1488 1490 1493 1496 1498 1498 1499 1500 1500 1499 1503 1504 1503 1502 1502 1504 1505 1504 1504 1503 1502 1502 1504 1507 1504 1495 1499 1498 1491 1490 1486 1487 1483 1468 1446 1454 1451 1443 1441 1439 1437 1429
1469 1472 1479 1485 1487 1489 1494 1497 1501 1500 1500 1498 1498 1498 1500 1502 1500 1500 1501 1503 1504 1504 1504 1504 1503 1499 1498 1502 1502 1505 1501 1494 1480 1478 1485 1475 1466 1449 1428 1441 1435 1428 1423 1420 1417
1460 1467 1472 1478 1485 1487 1490 1491 1493 1496 1497 1496 1496 1497 1498 1500 1502 1502 1501 1501 1503 1505 1505 1503 1499 1498 1499 1500 1504 1504 1500 1490 1472 1472 1480 1463 1460 1435 1427 1419 1423 1417 1410 1406 1402
1454 1463 1469 1471 1480 1484 1486 1489 1491 1492 1495 1497 1495 1496 1498 1501 1502 1502 1501 1500 1501 1504 1503 1501 1496 1497 1498 1496 1500 1499 1496 1486 1486 1469 1467 1465 1444 1412 1410 1412 1404 1400 1401 1396 1391
1448 1457 1467 1468 1481 1479 1484 1485 1489 1490 1496 1498 1496 1496 1497 1499 1502 1502 1501 1501 1501 1501 1501 1501 1498 1498 1499 1497 1496 1497 1486 1485 1484 1483 1468 1464 1459 1410 1395 1395 1400 1393 1389 1383 1378
1441 1450 1462 1464 1469 1475 1480 1485 1487 1490 1489 1495 1497 1497 1495 1499 1500 1502 1500 1498 1498 1499 1504 1494 1495 1497 1499 1493 1493 1488 1486 1482 1478 1479 1479 1458 1466 1404 1402 1392 1387 1387 1381 1375 1363
1435 1446 1456 1462 1465 1472 1478 1484 1489 1493 1482 1488 1492 1495 1496 1497 1499 1499 1498 1496 1497 1499 1499 1495 1493 1494 1492 1488 1489 1482 1482 1475 1475 1482 1482 1456 1451 1402 1415 1426 1403 1386 1384 1376 1357
1430 1443 1454 1456 1460 1466 1477 1483 1490 1482 1480 1486 1491 1494 1495 1499 1500 1501 1499 1500 1501 1499 1498 1494 1489 1489 1489 1489 1484 1484 1483 1469 1465 1468 1443 1440 1438 1420 1434 1431 1419 1403 1396 1385 1378
1425 1443 1448 1458 1462 1465 1471 1481 1478 1476 1477 1479 1487 1492 1495 1499 1502 1502 1499 1500 1503 1504 1506 1502 1484 1485 1487 1486 1483 1482 1489 1478 1473 1454 1439 1433 1433 1428 1441 1437 1429 1417 1407 1394 1388
1426 1439 1450 1458 1461 1465 1467 1475 1464 1467 1470 1476 1486 1491 1497 1499 1502 1501 1502 1502 1503 1504 1506 1503 1495 1486 1486 1485 1484 1484 1483 1477 1478 1462 1460 1433 1433 1435 1442 1437 1432 1424 1413 1399 1398
1425 1437 1450 1457 1461 1464 1468 1463 1468 1465 1468 1471 1480 1488 1495 1497 1500 1503 1501 1502 1503 1503 1503 1501 1502 1486 1486 1483 1481 1481 1480 1475 1475 1467 1448 1427 1443 1454 1451 1445 1441 1430 1426 1416 1412
1431 1438 1452 1456 1460 1465 1465 1462 1464 1464 1467 1469 1478 1486 1490 1494 1497 1504 1502 1502 1501 1502 1501 1501 1501 1488 1484 1482 1481 1477 1476 1478 1477 1468 1452 1439 1457 1473 1466 1458 1451 1446 1433 1429 1423
1427 1437 1450 1455 1462 1461 1460 1460 1459 1465 1468 1468 1476 1482 1486 1491 1495 1497 1498 1498 1499 1499 1499 1500 1499 1494 1482 1480 1478 1478 1478 1478 1472 1456 1452 1446 1470 1476 1472 1466 1459 1453 1443 1439 1435
1429 1439 1451 1453 1455 1458 1458 1458 1460 1464 1464 1470 1476 1479 1483 1489 1494 1496 1498 1497 1497 1499 1498 1499 1498 1498 1480 1479 1477 1483 1482 1483 1473 1466 1456 1450 1466 1479 1473 1468 1464 1460 1454 1448 1436
1426 1442 1451 1452 1453 1453 1456 1457 1462 1463 1466 1469 1476 1478 1483 1488 1492 1496 1496 1496 1497 1497 1497 1497 1495 1495 1493 1489 1494 1490 1485 1481 1474 1458 1458 1473 1480 1480 1476 1471 1468 1463 1459 1456 1448
1423 1434 1438 1450 1451 1450 1451 1455 1458 1463 1466 1469 1476 1477 1481 1488 1493 1495 1496 1497 1497 1497 1496 1496 1494 1492 1486 1483 1491 1494 1488 1488 1481 1472 1465 1486 1484 1485 1482 1478 1472 1467 1462 1456 1449
1420 1426 1434 1439 1444 1449 1451 1455 1455 1461 1465 1470 1473 1479 1481 1484 1486 1490 1493 1496 1495 1496 1495 1496 1491 1490 1480 1478 1484 1491 1492 1489 1489 1485 1479 1483 1485 1489 1487 1482 1474 1469 1464 1458 1455
1420 1423 1427 1442 1445 1447 1451 1452 1456 1459 1468 1468 1472 1477 1482 1483 1484 1486 1488 1492 1494 1495 1495 1495 1491 1487 1480 1479 1481 1488 1498 1496 1497 1495 1491 1487 1492 1491 1489 1485 1481 1476 1470 1468 1464